Regional Weather Roundup
Issued by NWS

Home | Current Version | Previous Version | Text Only | Print | Product List | Glossary On
Versions: 1 2 3 4 5 6 7 8 9 10 11 12 13 14 15 16 17 18 19 20 21 22 23 24 25 26 27 28 29 30 31 32 33 34 35 36 37 38 39 40 41 42 43 44 45 46 47 48 49 50
000
ASUS43 KMKX 260011
RWRWI

WISCONSIN REGIONAL WEATHER ROUNDUP
NATIONAL WEATHER SERVICE MILWAUKEE/SULLIVAN WI
700 PM CDT SAT MAR 25 2017

NOTE: "FAIR" INDICATES FEW OR NO CLOUDS BELOW 12,000 FEET WITH NO
SIGNIFICANT WEATHER AND/OR OBSTRUCTIONS TO VISIBILITY.

WIZ001-002-006>008-014>016-023>028-260100-
NORTHWEST WISCONSIN

CITY           SKY/WX    TMP DP  RH WIND       PRES   REMARKS
SUPERIOR ARPT  CLOUDY    33  31  92 E12G21    30.19S WCI  24
6HR MIN TEMP:  33; 6HR MAX TEMP:  36;

ASHLAND        CLOUDY    34  29  82 NE8       30.18F WCI  27
6HR MIN TEMP:  34; 6HR MAX TEMP:  37;

HAYWARD        CLOUDY    42  29  59 E9        30.11F
6HR MIN TEMP:  40; 6HR MAX TEMP:  46;

SIREN          CLOUDY    43  31  60 E7        30.10S
6HR MIN TEMP:  39; 6HR MAX TEMP:  46;

CUMBERLAND     CLOUDY    39  30  70 E9        30.09S WCI  33
RICE LAKE      CLOUDY    41  32  71 CALM      30.10F
6HR MIN TEMP:  39; 6HR MAX TEMP:  44;

CHETEK         CLOUDY    40  32  73 NE6       30.09F
6HR MIN TEMP:  38; 6HR MAX TEMP:  42;

LADYSMITH      CLOUDY    40  32  71 NE9       30.11F WCI  35
6HR MIN TEMP:  39; 6HR MAX TEMP:  42;

EAU CLAIRE     LGT RAIN  38  36  92 NE9       30.08S WCI  31
6HR MIN TEMP:  38; 6HR MAX TEMP:  41; 6HR PCP:  0.01;

MENOMONIE      DRIZZLE   39  37  90 NE6       30.08S WCI  35
6HR MIN TEMP:  39; 6HR MAX TEMP:  42; 6HR PCP:  0.01;

NEW RICHMOND   CLOUDY    40  32  72 NE9       30.07F WCI  34
6HR MIN TEMP:  38; 6HR MAX TEMP:  42;

OSCEOLA        CLOUDY    43  33  68 E7        30.11S
6HR MIN TEMP:  39; 6HR MAX TEMP:  44;

$$

WIZ003>005-009-010-017-018-260100-
NORTH CENTRAL WISCONSIN

CITY           SKY/WX    TMP DP  RH WIND       PRES   REMARKS
MANITOWISH WTR CLOUDY    36  31  83 E7        30.13F WCI  30
6HR MIN TEMP:  34; 6HR MAX TEMP:  37;

ARBOR VITAE    CLOUDY    39  31  72 E5        30.12F
6HR MIN TEMP:  37; 6HR MAX TEMP:  39;

WOODRUFF       CLOUDY    39  31  72 E5        30.12F
6HR MIN TEMP:  37; 6HR MAX TEMP:  39;

RHINELANDER    CLOUDY    38  30  73 E14       30.13F WCI  30
6HR MIN TEMP:  37; 6HR MAX TEMP:  41;

EAGLE RIVER    CLOUDY    37  29  71 E7        30.13F WCI  32
6HR MIN TEMP:  35; 6HR MAX TEMP:  39;

LAND O LAKES   CLOUDY    37  30  77 E7        30.16F WCI  31
6HR MIN TEMP:  35; 6HR MAX TEMP:  37;

PHILLIPS       CLOUDY    38  31  74 E10       30.11S WCI  31
6HR MIN TEMP:  36; 6HR MAX TEMP:  39;

TOMAHAWK       CLOUDY    37  29  75 E7        30.13S WCI  31
6HR MIN TEMP:  36; 6HR MAX TEMP:  39;

MEDFORD        DRIZZLE   36  31  83 E13G18    30.09R WCI  27
6HR MIN TEMP:  36; 6HR MAX TEMP:  39;

MERRILL        CLOUDY    37  31  79 E10G17    30.12S WCI  29
6HR MIN TEMP:  37; 6HR MAX TEMP:  40;

$$

WIZ029-030-035-036-043>047-260100-
CENTRAL WISCONSIN

CITY           SKY/WX    TMP DP  RH WIND       PRES   REMARKS
WAUSAU         LGT RAIN  33  31  92 E10       30.11R FOG     WCI  25
6HR MIN TEMP:  34; 6HR MAX TEMP:  41; 6HR PCP: TRACE;

MOSINEE        LGT RAIN  34  32  93 E13G23    30.13R WCI  25
MARSHFIELD     LGT RAIN  34  32  92 E15       30.08S FOG     WCI  24
6HR MIN TEMP:  34; 6HR MAX TEMP:  39; 6HR PCP: TRACE;

STEVENS POINT  MIX PCPN  32  32 100 E13G18    30.12S WCI  22
6HR MIN TEMP:  32; 6HR MAX TEMP:  37; 6HR PCP:  0.02;

WAUPACA        DRIZZLE   36  34  92 NE7G16    30.14R WCI  30
6HR MIN TEMP:  36; 6HR MAX TEMP:  40; 6HR PCP:  0.04;

WAUTOMA        CLOUDY    35  34  96 NE14      30.10F FOG     WCI  26
6HR MIN TEMP:  35; 6HR MAX TEMP:  37; 6HR PCP:  0.07;

WISC RAPIDS    CLOUDY    34  34 100 E15G22    30.11S WCI  24
6HR MIN TEMP:  34; 6HR MAX TEMP:  39; 6HR PCP:  0.03;

CAMP DOUGLAS   CLOUDY    36  35  97 E9        30.07S FOG     WCI  29
6HR MIN TEMP:  36; 6HR MAX TEMP:  38; 6HR PCP:  0.04;

$$

WIZ011>013-019>022-031-037>040-048>050-260100-
NORTHEAST WISCONSIN

CITY           SKY/WX    TMP DP  RH WIND       PRES   REMARKS
ANTIGO         CLOUDY    32  30  92 E14G23    30.14R FOG     WCI  22
6HR MIN TEMP:  32; 6HR MAX TEMP:  38;

SHAWANO        DRIZZLE   35  32  89 NE12      30.16F WCI  27
6HR MIN TEMP:  35; 6HR MAX TEMP:  40;

OCONTO         CLOUDY    33  32  94 NE9       30.18S WCI  26
6HR MIN TEMP:  33; 6HR MAX TEMP:  37;

STURGEON BAY   MIX PCPN  35  33  92 NE9       30.18R WCI  28
6HR MIN TEMP:  35; 6HR MAX TEMP:  37; 6HR PCP: TRACE;

GREEN BAY      LGT RAIN  35  35 100 NE16      30.15S FOG     WCI  25
6HR MIN TEMP:  35; 6HR MAX TEMP:  38; 6HR PCP:  0.01;

MANITOWOC      LGT RAIN  38  36  92 NE7       30.14R WCI  33
6HR MIN TEMP:  38; 6HR MAX TEMP:  38; 6HR PCP:  0.01;

APPLETON       NOT AVBL
CLINTONVILLE   DRIZZLE   32  32 100 NE9       30.15R WCI  24
OSHKOSH        CLOUDY    36  35  96 NE10      30.10S FOG     WCI  28
6HR MIN TEMP:  36; 6HR MAX TEMP:  37; 6HR PCP:  0.01;

$$

WIZ032>034-041-042-053>061-260100-
SOUTHWEST WISCONSIN

CITY           SKY/WX    TMP DP  RH WIND       PRES   REMARKS
LA CROSSE      LGT RAIN  39  36  89 E7        30.04F FOG     WCI  34
6HR MIN TEMP:  39; 6HR MAX TEMP:  42; 6HR PCP:  0.02;

SPARTA         CLOUDY    36  35  96 E14G23    30.06F FOG     WCI  27
6HR MIN TEMP:  36; 6HR MAX TEMP:  38; 6HR PCP:  0.02;

VIROQUA        CLOUDY    36  36 100 E17G23    30.01R WCI  26
6HR MIN TEMP:  36; 6HR MAX TEMP:  37; 6HR PCP:  0.02;

BOSCOBEL       CLOUDY    41  37  86 E10G22    30.01S
6HR MIN TEMP:  40; 6HR MAX TEMP:  41; 6HR PCP:  0.02;

PRAIRIE DU CHI CLOUDY    39  38  97 E9        29.99S FOG     WCI  33
6HR MIN TEMP:  38; 6HR MAX TEMP:  40; 6HR PCP:  0.16;

PLATTEVILLE    CLOUDY    40  40 100 E16G23    29.98R WCI  31
6HR MIN TEMP:  40; 6HR MAX TEMP:  41; 6HR PCP:  0.06;

$$

WIZ056-057-062-063-064-067-068-260100-
SOUTH CENTRAL WISCONSIN

CITY           SKY/WX    TMP DP  RH WIND       PRES   REMARKS
REEDSBURG      CLOUDY    36  36 100 E9        30.05R FOG     WCI  29
6HR MIN TEMP:  36; 6HR MAX TEMP:  37; 6HR PCP:  0.04;

BARABOO/DELLS  DRIZZLE   36  35  96 E12G21    30.05R WCI  28
6HR MIN TEMP:  36; 6HR MAX TEMP:  37; 6HR PCP:  0.01;

LONE ROCK      CLOUDY    39  37  92 E14       30.03S FOG     WCI  31
6HR MIN TEMP:  39; 6HR MAX TEMP:  40; 6HR PCP:  0.03;

MINERAL POINT  CLOUDY    41  41 100 E16G23    29.98S FOG
MADISON        DRIZZLE   39  37  92 E15       30.03S WCI  31
6HR MIN TEMP:  39; 6HR MAX TEMP:  39; 6HR PCP:  0.08;

MIDDLETON      CLOUDY    40  39  95 E14G21    30.03S WCI  33
6HR MIN TEMP:  40; 6HR MAX TEMP:  40; 6HR PCP:  0.04;

WATERTOWN      CLOUDY    38  38 100 E13G20    30.04S WCI  31
6HR MIN TEMP:  38; 6HR MAX TEMP:  39; 6HR PCP:  0.03;

MONROE         CLOUDY    37  37 100 NE15      29.98S WCI  28
JANESVILLE     CLOUDY    41  41 100 E16       29.99S
$$

WIZ051-052-058>065-066-070>072-260100-
SOUTHEAST WISCONSIN

CITY           SKY/WX    TMP DP  RH WIND       PRES   REMARKS
MILWAUKEE      LGT RAIN  39  36  89 NE13      30.07R WCI  31
6HR MIN TEMP:  39; 6HR MAX TEMP:  39; 6HR PCP:  0.10;

WAUKESHA       DRIZZLE   36  36 100 E12G18    30.06S WCI  27
MILWAUKEE/TIMM DRIZZLE   37  36  93 NE10      30.08R WCI  30
RACINE         LGT RAIN  39  37  92 NE12      30.07S WCI  32
6HR MIN TEMP:  38; 6HR MAX TEMP:  39; 6HR PCP:  0.16;

KENOSHA        LGT RAIN  40  39  97 NE13      30.03S FOG     WCI  32
6HR MIN TEMP:  39; 6HR MAX TEMP:  40; 6HR PCP:  0.03;

FOND DU LAC    LGT RAIN  38  35  89 E16       30.09S WCI  29
6HR MIN TEMP:  38; 6HR MAX TEMP:  39; 6HR PCP:  0.01;

SHEBOYGAN      CLOUDY    37  35  92 NE14      30.11S WCI  28
6HR MIN TEMP:  37; 6HR MAX TEMP:  38; 6HR PCP:  0.02;

WEST BEND      DRIZZLE   36  36 100 NE14G22   30.08S WCI  27
JUNEAU         LGT RAIN  37  37  97 NE8       30.07S WCI  31
6HR MIN TEMP:  37; 6HR MAX TEMP:  37; 6HR PCP:  0.05;

$$

LSZ147-162-260100-
LAKE SUPERIOR

STATION/POSITION TIME  TEMP    WIND        PRES    WAVE
                       AIR SEA DIR/SP/G            HT/PER
                 (UTC) (F)     (DEG/KT/KT) (MB)    (FT/S)
DEVILS ISLAND    0000   33      70/ 21/ 25 1023.9F
PORT WING        2340   34      40/ 15/ 17 1022.4S
SAXON HARBOR     2330   34      50/ 15/ 17 1021.7S
$$

LMZ867-665-643>646-260100-
LAKE MICHIGAN

STATION/POSITION TIME  TEMP    WIND        PRES    WAVE
                       AIR SEA DIR/SP/G            HT/PER
                 (UTC) (F)     (DEG/KT/KT) (MB)    (FT/S)
CHAMBERS ISLAND  2340   33      30/ 13/ 20


USA.gov is the U.S. government's official web portal to all federal, state and local government web resources and services.